PRIVATE WETTERSTATION BILLIGHEIM-ALLFELD                       ZURCK
Wetterdaten: Mittwoch, 27.09.2017
Datum Zeit Temp. A. Temp. A. min Temp. A. max Feuchte A. Luftdruck Regen Wind Richtung Richtung Sonnenschein ET Solar Taupunkt Windchill Windben Empfang
27.09.2017 00:00 11,5 C 11,5 C 11,6 C 89 % 1021,5 hPa 0,0 l/m 0,0 km/h (0 Bft) N 0 0 min 0,000 mm 0 W/m 9,8 C 11,5 C 0,0 km/h (0 Bft) 100 %
27.09.2017 00:10 11,4 C 11,4 C 11,5 C 89 % 1021,6 hPa 0,0 l/m 0,0 km/h (0 Bft) N 0 0 min 0,000 mm 0 W/m 9,7 C 11,4 C 0,0 km/h (0 Bft) 100 %
27.09.2017 00:20 11,2 C 11,2 C 11,4 C 89 % 1021,5 hPa 0,0 l/m 0,0 km/h (0 Bft) N 0 0 min 0,000 mm 0 W/m 9,5 C 11,2 C 0,0 km/h (0 Bft) 100 %
27.09.2017 00:30 11,1 C 11,1 C 11,2 C 89 % 1021,5 hPa 0,0 l/m 0,0 km/h (0 Bft) N 0 0 min 0,000 mm 0 W/m 9,4 C 11,1 C 0,0 km/h (0 Bft) 100 %
27.09.2017 00:40 11,1 C 11,1 C 11,1 C 89 % 1021,6 hPa 0,0 l/m 0,0 km/h (0 Bft) N 0 0 min 0,000 mm 0 W/m 9,4 C 11,1 C 0,0 km/h (0 Bft) 100 %
27.09.2017 00:50 10,9 C 10,9 C 11,1 C 89 % 1021,8 hPa 0,0 l/m 0,0 km/h (0 Bft) N 0 0 min 0,000 mm 0 W/m 9,2 C 10,9 C 0,0 km/h (0 Bft) 100 %
27.09.2017 01:00 10,8 C 10,8 C 10,9 C 89 % 1021,7 hPa 0,0 l/m 0,0 km/h (0 Bft) N 0 0 min 0,000 mm 0 W/m 9,1 C 10,8 C 0,0 km/h (0 Bft) 100 %
27.09.2017 01:10 10,7 C 10,7 C 10,8 C 89 % 1021,6 hPa 0,0 l/m 0,0 km/h (0 Bft) N 0 0 min 0,000 mm 0 W/m 9,0 C 10,7 C 0,0 km/h (0 Bft) 100 %
27.09.2017 01:20 10,5 C 10,5 C 10,7 C 89 % 1021,7 hPa 0,0 l/m 0,0 km/h (0 Bft) N 0 0 min 0,000 mm 0 W/m 8,8 C 10,5 C 0,0 km/h (0 Bft) 100 %
27.09.2017 01:30 10,3 C 10,3 C 10,5 C 89 % 1021,7 hPa 0,0 l/m 0,0 km/h (0 Bft) N 0 0 min 0,000 mm 0 W/m 8,6 C 10,3 C 0,0 km/h (0 Bft) 100 %
27.09.2017 01:40 10,3 C 10,3 C 10,3 C 89 % 1021,7 hPa 0,0 l/m 0,0 km/h (0 Bft) N 0 0 min 0,000 mm 0 W/m 8,6 C 10,3 C 0,0 km/h (0 Bft) 100 %
27.09.2017 01:50 10,3 C 10,3 C 10,3 C 89 % 1021,7 hPa 0,0 l/m 0,0 km/h (0 Bft) N 0 0 min 0,000 mm 0 W/m 8,6 C 10,3 C 0,0 km/h (0 Bft) 100 %
27.09.2017 02:00 10,2 C 10,2 C 10,3 C 89 % 1021,7 hPa 0,0 l/m 0,0 km/h (0 Bft) N 0 0 min 0,000 mm 0 W/m 8,5 C 10,2 C 0,0 km/h (0 Bft) 99 %
27.09.2017 02:10 10,1 C 10,1 C 10,2 C 89 % 1021,8 hPa 0,0 l/m 0,0 km/h (0 Bft) N 0 0 min 0,000 mm 0 W/m 8,4 C 10,1 C 0,0 km/h (0 Bft) 100 %
27.09.2017 02:20 10,1 C 10,1 C 10,2 C 90 % 1021,6 hPa 0,0 l/m 0,0 km/h (0 Bft) N 360 0 min 0,000 mm 0 W/m 8,5 C 10,1 C 1,6 km/h (1 Bft) 100 %
27.09.2017 02:30 10,2 C 10,1 C 10,2 C 90 % 1021,5 hPa 0,0 l/m 0,0 km/h (0 Bft) N 0 0 min 0,000 mm 0 W/m 8,6 C 10,2 C 0,0 km/h (0 Bft) 100 %
27.09.2017 02:40 10,1 C 10,1 C 10,2 C 90 % 1021,4 hPa 0,0 l/m 0,0 km/h (0 Bft) N 0 0 min 0,000 mm 0 W/m 8,5 C 10,1 C 0,0 km/h (0 Bft) 100 %
27.09.2017 02:50 10,0 C 10,0 C 10,1 C 89 % 1021,3 hPa 0,0 l/m 0,0 km/h (0 Bft) N 360 0 min 0,000 mm 0 W/m 8,3 C 10,0 C 1,6 km/h (1 Bft) 100 %
27.09.2017 03:00 9,9 C 9,9 C 10,0 C 89 % 1021,3 hPa 0,0 l/m 0,0 km/h (0 Bft) N 0 0 min 0,000 mm 0 W/m 8,2 C 9,9 C 0,0 km/h (0 Bft) 100 %
27.09.2017 03:10 9,7 C 9,7 C 9,9 C 90 % 1021,2 hPa 0,2 l/m 0,0 km/h (0 Bft) N 0 0 min 0,000 mm 0 W/m 8,1 C 9,7 C 0,0 km/h (0 Bft) 100 %
27.09.2017 03:20 9,6 C 9,6 C 9,7 C 89 % 1021,2 hPa 0,0 l/m 0,0 km/h (0 Bft) N 0 0 min 0,000 mm 0 W/m 7,9 C 9,6 C 0,0 km/h (0 Bft) 100 %
27.09.2017 03:30 9,4 C 9,4 C 9,6 C 90 % 1021,1 hPa 0,0 l/m 0,0 km/h (0 Bft) N 0 0 min 0,000 mm 0 W/m 7,8 C 9,4 C 0,0 km/h (0 Bft) 100 %
27.09.2017 03:40 9,3 C 9,3 C 9,4 C 90 % 1021,1 hPa 0,0 l/m 0,0 km/h (0 Bft) N 0 0 min 0,000 mm 0 W/m 7,7 C 9,3 C 0,0 km/h (0 Bft) 90 %
27.09.2017 03:50 9,4 C 9,3 C 9,4 C 90 % 1021,2 hPa 0,0 l/m 0,0 km/h (0 Bft) N 0 0 min 0,000 mm 0 W/m 7,8 C 9,4 C 0,0 km/h (0 Bft) 100 %
27.09.2017 04:00 9,4 C 9,4 C 9,4 C 90 % 1021,2 hPa 0,0 l/m 0,0 km/h (0 Bft) N 0 0 min 0,000 mm 0 W/m 7,8 C 9,4 C 0,0 km/h (0 Bft) 100 %
27.09.2017 04:10 9,4 C 9,4 C 9,4 C 90 % 1021,2 hPa 0,0 l/m 0,0 km/h (0 Bft) N 0 0 min 0,000 mm 0 W/m 7,8 C 9,4 C 0,0 km/h (0 Bft) 100 %
27.09.2017 04:20 9,3 C 9,3 C 9,4 C 90 % 1021,2 hPa 0,0 l/m 0,0 km/h (0 Bft) N 0 0 min 0,000 mm 0 W/m 7,7 C 9,3 C 0,0 km/h (0 Bft) 100 %
27.09.2017 04:30 9,2 C 9,2 C 9,4 C 90 % 1021,4 hPa 0,0 l/m 0,0 km/h (0 Bft) N 0 0 min 0,000 mm 0 W/m 7,6 C 9,2 C 0,0 km/h (0 Bft) 100 %
27.09.2017 04:40 9,1 C 9,1 C 9,2 C 90 % 1021,5 hPa 0,0 l/m 0,0 km/h (0 Bft) N 0 0 min 0,000 mm 0 W/m 7,5 C 9,1 C 0,0 km/h (0 Bft) 100 %
27.09.2017 04:50 9,1 C 9,1 C 9,1 C 90 % 1021,5 hPa 0,0 l/m 0,0 km/h (0 Bft) N 0 0 min 0,000 mm 0 W/m 7,5 C 9,1 C 0,0 km/h (0 Bft) 100 %
27.09.2017 05:00 9,1 C 9,0 C 9,1 C 90 % 1021,6 hPa 0,0 l/m 0,0 km/h (0 Bft) N 0 0 min 0,000 mm 0 W/m 7,5 C 9,1 C 0,0 km/h (0 Bft) 100 %
27.09.2017 05:10 9,0 C 8,9 C 9,1 C 90 % 1021,6 hPa 0,0 l/m 0,0 km/h (0 Bft) N 0 0 min 0,000 mm 0 W/m 7,4 C 9,0 C 0,0 km/h (0 Bft) 100 %
27.09.2017 05:20 8,9 C 8,9 C 9,0 C 90 % 1021,6 hPa 0,0 l/m 0,0 km/h (0 Bft) N 0 0 min 0,000 mm 0 W/m 7,4 C 8,9 C 0,0 km/h (0 Bft) 100 %
27.09.2017 05:30 8,8 C 8,8 C 8,9 C 90 % 1021,7 hPa 0,0 l/m 0,0 km/h (0 Bft) N 0 0 min 0,000 mm 0 W/m 7,3 C 8,8 C 0,0 km/h (0 Bft) 100 %
27.09.2017 05:40 8,7 C 8,7 C 8,8 C 90 % 1021,8 hPa 0,0 l/m 0,0 km/h (0 Bft) N 0 0 min 0,000 mm 0 W/m 7,2 C 8,7 C 0,0 km/h (0 Bft) 100 %
27.09.2017 05:50 8,7 C 8,7 C 8,7 C 90 % 1021,8 hPa 0,0 l/m 0,0 km/h (0 Bft) N 0 0 min 0,000 mm 0 W/m 7,2 C 8,7 C 0,0 km/h (0 Bft) 100 %
27.09.2017 06:00 8,8 C 8,7 C 8,8 C 90 % 1021,7 hPa 0,0 l/m 0,0 km/h (0 Bft) N 360 0 min 0,000 mm 0 W/m 7,3 C 8,8 C 1,6 km/h (1 Bft) 100 %
27.09.2017 06:10 8,8 C 8,8 C 8,8 C 90 % 1021,7 hPa 0,0 l/m 0,0 km/h (0 Bft) N 360 0 min 0,000 mm 0 W/m 7,3 C 8,8 C 1,6 km/h (1 Bft) 100 %
27.09.2017 06:20 8,8 C 8,8 C 8,8 C 90 % 1021,7 hPa 0,0 l/m 0,0 km/h (0 Bft) N 360 0 min 0,000 mm 0 W/m 7,3 C 8,8 C 3,2 km/h (1 Bft) 100 %
27.09.2017 06:30 8,8 C 8,8 C 8,8 C 90 % 1021,7 hPa 0,0 l/m 1,6 km/h (1 Bft) N 360 0 min 0,000 mm 0 W/m 7,3 C 8,8 C 3,2 km/h (1 Bft) 100 %
27.09.2017 06:40 8,8 C 8,8 C 8,8 C 90 % 1021,7 hPa 0,0 l/m 0,0 km/h (0 Bft) N 360 0 min 0,000 mm 0 W/m 7,3 C 8,8 C 1,6 km/h (1 Bft) 100 %
27.09.2017 06:50 8,8 C 8,8 C 8,8 C 90 % 1021,9 hPa 0,0 l/m 0,0 km/h (0 Bft) N 0 0 min 0,000 mm 0 W/m 7,3 C 8,8 C 0,0 km/h (0 Bft) 100 %
27.09.2017 07:00 8,8 C 8,8 C 8,9 C 90 % 1021,8 hPa 0,0 l/m 0,0 km/h (0 Bft) N 360 0 min 0,000 mm 0 W/m 7,3 C 8,8 C 3,2 km/h (1 Bft) 100 %
27.09.2017 07:10 8,9 C 8,9 C 8,9 C 90 % 1021,9 hPa 0,0 l/m 0,0 km/h (0 Bft) N 360 0 min 0,000 mm 0 W/m 7,4 C 8,9 C 1,6 km/h (1 Bft) 100 %
27.09.2017 07:20 8,8 C 8,8 C 8,9 C 90 % 1021,9 hPa 0,0 l/m 0,0 km/h (0 Bft) N 0 0 min 0,000 mm 0 W/m 7,3 C 8,8 C 0,0 km/h (0 Bft) 100 %
27.09.2017 07:30 8,8 C 8,8 C 8,8 C 90 % 1022,0 hPa 0,0 l/m 0,0 km/h (0 Bft) N 0 0 min 0,000 mm 7 W/m 7,3 C 8,8 C 0,0 km/h (0 Bft) 100 %
27.09.2017 07:40 8,7 C 8,7 C 8,8 C 90 % 1022,1 hPa 0,0 l/m 0,0 km/h (0 Bft) N 0 0 min 0,000 mm 14 W/m 7,2 C 8,7 C 0,0 km/h (0 Bft) 100 %
27.09.2017 07:50 8,8 C 8,7 C 8,8 C 90 % 1022,1 hPa 0,0 l/m 0,0 km/h (0 Bft) N 0 0 min 0,000 mm 18 W/m 7,3 C 8,8 C 0,0 km/h (0 Bft) 100 %
27.09.2017 08:00 8,9 C 8,8 C 8,9 C 90 % 1022,1 hPa 0,0 l/m 0,0 km/h (0 Bft) N 0 0 min 0,000 mm 21 W/m 7,4 C 8,9 C 0,0 km/h (0 Bft) 100 %
27.09.2017 08:10 9,1 C 8,9 C 9,1 C 90 % 1022,2 hPa 0,0 l/m 0,0 km/h (0 Bft) N 360 0 min 0,000 mm 26 W/m 7,5 C 9,1 C 1,6 km/h (1 Bft) 100 %
27.09.2017 08:20 9,3 C 9,1 C 9,3 C 90 % 1022,4 hPa 0,0 l/m 0,0 km/h (0 Bft) N 0 0 min 0,000 mm 35 W/m 7,7 C 9,3 C 0,0 km/h (0 Bft) 100 %
27.09.2017 08:30 9,4 C 9,3 C 9,4 C 90 % 1022,4 hPa 0,0 l/m 0,0 km/h (0 Bft) N 0 0 min 0,000 mm 44 W/m 7,8 C 9,4 C 0,0 km/h (0 Bft) 100 %
27.09.2017 08:40 9,6 C 9,4 C 9,6 C 90 % 1022,5 hPa 0,0 l/m 0,0 km/h (0 Bft) N 0 0 min 0,000 mm 53 W/m 8,0 C 9,6 C 0,0 km/h (0 Bft) 100 %
27.09.2017 08:50 9,7 C 9,6 C 9,7 C 90 % 1022,5 hPa 0,0 l/m 0,0 km/h (0 Bft) N 0 0 min 0,000 mm 70 W/m 8,1 C 9,7 C 0,0 km/h (0 Bft) 99 %
27.09.2017 09:00 10,0 C 9,7 C 10,0 C 90 % 1022,6 hPa 0,0 l/m 0,0 km/h (0 Bft) NO 45 0 min 0,025 mm 100 W/m 8,4 C 10,0 C 1,6 km/h (1 Bft) 98 %
27.09.2017 09:10 10,4 C 10,0 C 10,4 C 91 % 1022,6 hPa 0,0 l/m 0,0 km/h (0 Bft) N 0 0 min 0,000 mm 149 W/m 9,0 C 10,4 C 0,0 km/h (0 Bft) 92 %
27.09.2017 09:20 10,8 C 10,4 C 10,8 C 91 % 1022,6 hPa 0,0 l/m 0,0 km/h (0 Bft) N-NO 22 0 min 0,000 mm 134 W/m 9,4 C 10,8 C 4,8 km/h (1 Bft) 100 %
27.09.2017 09:30 11,2 C 10,8 C 11,2 C 91 % 1022,6 hPa 0,0 l/m 0,0 km/h (0 Bft) N 0 10 min 0,000 mm 306 W/m 9,8 C 11,2 C 0,0 km/h (0 Bft) 100 %
27.09.2017 09:40 11,9 C 11,2 C 11,9 C 91 % 1022,6 hPa 0,0 l/m 0,0 km/h (0 Bft) N 0 10 min 0,000 mm 315 W/m 10,5 C 11,9 C 0,0 km/h (0 Bft) 100 %
27.09.2017 09:50 12,5 C 11,9 C 12,5 C 91 % 1022,6 hPa 0,0 l/m 0,0 km/h (0 Bft) N 0 10 min 0,000 mm 318 W/m 11,1 C 12,5 C 0,0 km/h (0 Bft) 100 %
27.09.2017 10:10 12,9 C 11,9 C 12,9 C 90 % 1022,8 hPa 0,0 l/m 0,0 km/h (0 Bft) N-NW 338 20 min 0,127 mm 369 W/m 11,3 C 12,9 C 1,6 km/h (1 Bft) 100 %
27.09.2017 10:20 13,5 C 12,9 C 13,5 C 90 % 1022,8 hPa 0,0 l/m 0,0 km/h (0 Bft) N-NW 338 10 min 0,000 mm 392 W/m 11,9 C 13,5 C 0,0 km/h (0 Bft) 100 %
27.09.2017 10:30 14,1 C 13,5 C 14,1 C 90 % 1022,7 hPa 0,0 l/m 0,0 km/h (0 Bft) W-NW 300 10 min 0,000 mm 441 W/m 12,5 C 14,1 C 0,0 km/h (0 Bft) 100 %
27.09.2017 10:40 14,5 C 14,1 C 14,5 C 90 % 1022,8 hPa 0,0 l/m 0,0 km/h (0 Bft) W-NW 299 10 min 0,000 mm 260 W/m 12,9 C 14,5 C 1,6 km/h (1 Bft) 100 %
27.09.2017 10:50 14,9 C 14,5 C 14,9 C 90 % 1022,8 hPa 0,0 l/m 0,0 km/h (0 Bft) W-NW 294 10 min 0,000 mm 454 W/m 13,3 C 14,9 C 0,0 km/h (0 Bft) 100 %
27.09.2017 11:00 15,2 C 14,9 C 15,2 C 89 % 1022,7 hPa 0,0 l/m 0,2 km/h (0 Bft) W 259 10 min 0,178 mm 457 W/m 13,4 C 15,2 C 4,8 km/h (1 Bft) 100 %
27.09.2017 11:10 15,6 C 15,2 C 15,6 C 89 % 1022,7 hPa 0,0 l/m 0,1 km/h (0 Bft) W-SW 247 10 min 0,000 mm 232 W/m 13,8 C 15,6 C 3,2 km/h (1 Bft) 100 %
27.09.2017 11:20 15,7 C 15,6 C 15,7 C 88 % 1022,7 hPa 0,0 l/m 0,1 km/h (0 Bft) W-SW 240 10 min 0,000 mm 325 W/m 13,7 C 15,7 C 3,2 km/h (1 Bft) 100 %
27.09.2017 11:30 15,9 C 15,7 C 15,9 C 89 % 1022,5 hPa 0,0 l/m 0,0 km/h (0 Bft) W-SW 240 10 min 0,000 mm 554 W/m 14,1 C 15,9 C 1,6 km/h (1 Bft) 100 %
27.09.2017 11:40 16,1 C 15,9 C 16,2 C 87 % 1022,5 hPa 0,0 l/m 0,1 km/h (0 Bft) W-SW 243 10 min 0,000 mm 316 W/m 13,9 C 16,1 C 4,8 km/h (1 Bft) 99 %
27.09.2017 11:50 16,3 C 16,1 C 16,3 C 88 % 1022,4 hPa 0,0 l/m 0,3 km/h (0 Bft) W 267 10 min 0,000 mm 520 W/m 14,3 C 16,3 C 4,8 km/h (1 Bft) 100 %
27.09.2017 12:00 16,3 C 16,2 C 16,3 C 88 % 1022,5 hPa 0,0 l/m 0,0 km/h (0 Bft) W 267 10 min 0,229 mm 594 W/m 14,3 C 16,3 C 1,6 km/h (1 Bft) 100 %
27.09.2017 12:10 16,8 C 16,3 C 16,8 C 87 % 1022,5 hPa 0,0 l/m 0,0 km/h (0 Bft) W 264 10 min 0,000 mm 606 W/m 14,6 C 16,8 C 0,0 km/h (0 Bft) 100 %
27.09.2017 12:20 17,4 C 16,8 C 17,4 C 85 % 1022,4 hPa 0,0 l/m 1,6 km/h (1 Bft) S-SW 213 10 min 0,000 mm 642 W/m 14,8 C 17,4 C 8,0 km/h (2 Bft) 100 %
27.09.2017 12:30 17,6 C 17,4 C 17,7 C 82 % 1022,5 hPa 0,0 l/m 1,6 km/h (1 Bft) S-SW 204 10 min 0,000 mm 650 W/m 14,5 C 17,6 C 9,7 km/h (2 Bft) 100 %
27.09.2017 12:40 17,8 C 17,6 C 17,8 C 81 % 1022,5 hPa 0,0 l/m 0,3 km/h (0 Bft) S-SW 213 10 min 0,000 mm 610 W/m 14,5 C 17,8 C 6,4 km/h (2 Bft) 100 %
27.09.2017 12:50 18,1 C 17,8 C 18,1 C 82 % 1022,4 hPa 0,0 l/m 0,0 km/h (0 Bft) S-SW 212 10 min 0,000 mm 631 W/m 15,0 C 18,1 C 3,2 km/h (1 Bft) 100 %
27.09.2017 13:00 18,3 C 18,1 C 18,4 C 79 % 1022,3 hPa 0,0 l/m 0,6 km/h (0 Bft) SW 224 10 min 0,355 mm 691 W/m 14,6 C 18,3 C 4,8 km/h (1 Bft) 100 %
27.09.2017 13:10 18,3 C 18,3 C 18,4 C 79 % 1022,2 hPa 0,0 l/m 0,0 km/h (0 Bft) SW 229 10 min 0,000 mm 601 W/m 14,6 C 18,3 C 0,0 km/h (0 Bft) 100 %
27.09.2017 13:20 18,0 C 18,0 C 18,3 C 80 % 1022,2 hPa 0,0 l/m 0,0 km/h (0 Bft) W-NW 291 10 min 0,000 mm 179 W/m 14,5 C 18,0 C 1,6 km/h (1 Bft) 100 %
27.09.2017 13:30 17,6 C 17,6 C 18,0 C 83 % 1022,0 hPa 0,0 l/m 0,0 km/h (0 Bft) W-NW 291 10 min 0,000 mm 264 W/m 14,7 C 17,6 C 0,0 km/h (0 Bft) 100 %
27.09.2017 13:40 17,4 C 17,4 C 17,6 C 80 % 1022,0 hPa 0,0 l/m 0,0 km/h (0 Bft) W-NW 291 10 min 0,000 mm 202 W/m 13,9 C 17,4 C 0,0 km/h (0 Bft) 100 %
27.09.2017 13:50 17,4 C 17,3 C 17,4 C 83 % 1022,0 hPa 0,0 l/m 0,2 km/h (0 Bft) W-NW 291 10 min 0,000 mm 519 W/m 14,5 C 17,4 C 4,8 km/h (1 Bft) 100 %
27.09.2017 14:00 17,7 C 17,4 C 17,7 C 81 % 1021,9 hPa 0,0 l/m 1,2 km/h (1 Bft) W-NW 295 10 min 0,229 mm 195 W/m 14,4 C 17,7 C 6,4 km/h (2 Bft) 100 %
27.09.2017 14:10 18,2 C 17,7 C 18,2 C 80 % 1021,8 hPa 0,0 l/m 1,5 km/h (1 Bft) W-NW 298 10 min 0,000 mm 621 W/m 14,7 C 18,2 C 8,0 km/h (2 Bft) 100 %
27.09.2017 14:20 18,7 C 18,2 C 18,7 C 78 % 1021,8 hPa 0,0 l/m 0,0 km/h (0 Bft) W-NW 302 10 min 0,000 mm 295 W/m 14,8 C 18,7 C 1,6 km/h (1 Bft) 100 %
27.09.2017 14:30 18,7 C 18,7 C 18,7 C 78 % 1021,8 hPa 0,0 l/m 0,0 km/h (0 Bft) W-NW 303 10 min 0,000 mm 526 W/m 14,8 C 18,7 C 1,6 km/h (1 Bft) 100 %
27.09.2017 14:40 18,7 C 18,7 C 18,8 C 75 % 1021,7 hPa 0,0 l/m 0,0 km/h (0 Bft) W-NW 303 10 min 0,000 mm 582 W/m 14,2 C 18,7 C 1,6 km/h (1 Bft) 100 %
27.09.2017 14:50 19,1 C 18,7 C 19,1 C 76 % 1021,7 hPa 0,0 l/m 0,0 km/h (0 Bft) NW 309 10 min 0,000 mm 294 W/m 14,8 C 19,1 C 1,6 km/h (1 Bft) 100 %
27.09.2017 15:00 19,6 C 19,1 C 19,6 C 76 % 1021,6 hPa 0,0 l/m 1,2 km/h (1 Bft) SW 219 10 min 0,254 mm 475 W/m 15,2 C 19,6 C 9,7 km/h (2 Bft) 100 %
27.09.2017 15:10 19,6 C 19,6 C 19,6 C 72 % 1021,7 hPa 0,0 l/m 0,0 km/h (0 Bft) SW 219 10 min 0,000 mm 246 W/m 14,4 C 19,6 C 1,6 km/h (1 Bft) 100 %
27.09.2017 15:20 19,7 C 19,6 C 19,7 C 74 % 1021,7 hPa 0,0 l/m 0,2 km/h (0 Bft) NW 317 10 min 0,000 mm 431 W/m 14,9 C 19,7 C 8,0 km/h (2 Bft) 100 %
27.09.2017 15:30 19,7 C 19,7 C 19,8 C 74 % 1021,6 hPa 0,0 l/m 0,6 km/h (0 Bft) W-NW 296 10 min 0,000 mm 508 W/m 14,9 C 19,7 C 9,7 km/h (2 Bft) 100 %
27.09.2017 15:40 19,6 C 19,6 C 19,7 C 73 % 1021,5 hPa 0,0 l/m 0,0 km/h (0 Bft) W-NW 297 10 min 0,000 mm 434 W/m 14,6 C 19,6 C 0,0 km/h (0 Bft) 100 %
27.09.2017 15:50 19,4 C 19,4 C 19,6 C 73 % 1021,5 hPa 0,0 l/m 0,0 km/h (0 Bft) W-NW 298 10 min 0,000 mm 352 W/m 14,4 C 19,4 C 0,0 km/h (0 Bft) 100 %
27.09.2017 16:00 19,3 C 19,3 C 19,4 C 74 % 1021,4 hPa 0,0 l/m 0,0 km/h (0 Bft) W-NW 296 0 min 0,203 mm 90 W/m 14,5 C 19,3 C 1,6 km/h (1 Bft) 100 %
27.09.2017 16:10 19,2 C 19,2 C 19,3 C 74 % 1021,3 hPa 0,0 l/m 0,0 km/h (0 Bft) W-NW 299 0 min 0,000 mm 84 W/m 14,4 C 19,2 C 1,6 km/h (1 Bft) 100 %
27.09.2017 16:20 19,1 C 19,1 C 19,2 C 73 % 1021,3 hPa 0,0 l/m 0,0 km/h (0 Bft) W-NW 302 0 min 0,000 mm 81 W/m 14,1 C 19,1 C 1,6 km/h (1 Bft) 100 %
27.09.2017 16:30 19,2 C 19,1 C 19,2 C 74 % 1021,2 hPa 0,0 l/m 0,0 km/h (0 Bft) W-NW 302 0 min 0,000 mm 76 W/m 14,4 C 19,2 C 1,6 km/h (1 Bft) 100 %
27.09.2017 16:40 19,2 C 19,2 C 19,2 C 73 % 1021,2 hPa 0,0 l/m 0,0 km/h (0 Bft) W-NW 302 0 min 0,000 mm 74 W/m 14,2 C 19,2 C 1,6 km/h (1 Bft) 100 %
27.09.2017 16:50 19,1 C 19,1 C 19,2 C 72 % 1021,2 hPa 0,0 l/m 0,0 km/h (0 Bft) W-NW 302 0 min 0,000 mm 69 W/m 13,9 C 19,1 C 1,6 km/h (1 Bft) 91 %
27.09.2017 17:00 19,2 C 19,1 C 19,2 C 73 % 1021,3 hPa 0,0 l/m 0,0 km/h (0 Bft) W-NW 302 0 min 0,051 mm 70 W/m 14,2 C 19,2 C 0,0 km/h (0 Bft) 100 %
27.09.2017 17:10 19,2 C 19,1 C 19,2 C 72 % 1021,2 hPa 0,0 l/m 0,0 km/h (0 Bft) W-NW 302 0 min 0,000 mm 65 W/m 14,0 C 19,2 C 1,6 km/h (1 Bft) 100 %
27.09.2017 17:20 19,1 C 19,1 C 19,2 C 73 % 1021,3 hPa 0,0 l/m 0,0 km/h (0 Bft) W-NW 302 0 min 0,000 mm 62 W/m 14,1 C 19,1 C 0,0 km/h (0 Bft) 100 %
27.09.2017 17:30 19,1 C 19,1 C 19,1 C 72 % 1021,4 hPa 0,0 l/m 0,0 km/h (0 Bft) W-NW 302 0 min 0,000 mm 56 W/m 13,9 C 19,1 C 0,0 km/h (0 Bft) 98 %
27.09.2017 17:40 18,9 C 18,9 C 19,1 C 73 % 1021,5 hPa 0,0 l/m 0,0 km/h (0 Bft) W-NW 302 0 min 0,000 mm 51 W/m 13,9 C 18,9 C 1,6 km/h (1 Bft) 100 %
27.09.2017 17:50 18,7 C 18,7 C 18,9 C 73 % 1021,5 hPa 0,0 l/m 0,0 km/h (0 Bft) W-NW 302 0 min 0,000 mm 46 W/m 13,8 C 18,7 C 0,0 km/h (0 Bft) 100 %
27.09.2017 18:00 18,5 C 18,5 C 18,7 C 73 % 1021,5 hPa 0,0 l/m 0,0 km/h (0 Bft) W-NW 302 0 min 0,025 mm 40 W/m 13,6 C 18,5 C 0,0 km/h (0 Bft) 100 %
27.09.2017 18:10 18,3 C 18,3 C 18,5 C 73 % 1021,5 hPa 0,0 l/m 0,0 km/h (0 Bft) W-NW 302 0 min 0,000 mm 35 W/m 13,4 C 18,3 C 0,0 km/h (0 Bft) 100 %
27.09.2017 18:20 18,1 C 18,1 C 18,3 C 74 % 1021,5 hPa 0,0 l/m 0,0 km/h (0 Bft) W-NW 302 0 min 0,000 mm 28 W/m 13,4 C 18,1 C 0,0 km/h (0 Bft) 100 %
27.09.2017 18:30 17,9 C 17,9 C 18,1 C 76 % 1021,5 hPa 0,0 l/m 0,0 km/h (0 Bft) W-NW 302 0 min 0,000 mm 25 W/m 13,6 C 17,9 C 0,0 km/h (0 Bft) 100 %
27.09.2017 18:40 17,6 C 17,6 C 17,9 C 78 % 1021,5 hPa 0,0 l/m 0,0 km/h (0 Bft) W-NW 302 0 min 0,000 mm 19 W/m 13,7 C 17,6 C 0,0 km/h (0 Bft) 100 %
27.09.2017 18:50 17,1 C 17,1 C 17,6 C 79 % 1021,6 hPa 0,0 l/m 0,0 km/h (0 Bft) W-NW 302 0 min 0,000 mm 12 W/m 13,4 C 17,1 C 0,0 km/h (0 Bft) 100 %
27.09.2017 19:00 16,7 C 16,7 C 17,1 C 80 % 1021,6 hPa 0,0 l/m 0,0 km/h (0 Bft) W-NW 302 0 min 0,026 mm 5 W/m 13,2 C 16,7 C 0,0 km/h (0 Bft) 100 %
27.09.2017 19:10 16,3 C 16,3 C 16,7 C 81 % 1021,6 hPa 0,0 l/m 0,0 km/h (0 Bft) W-NW 302 0 min 0,000 mm 0 W/m 13,0 C 16,3 C 0,0 km/h (0 Bft) 100 %
27.09.2017 19:20 16,0 C 16,0 C 16,3 C 82 % 1021,6 hPa 0,0 l/m 0,0 km/h (0 Bft) W-NW 302 0 min 0,000 mm 0 W/m 12,9 C 16,0 C 0,0 km/h (0 Bft) 100 %
27.09.2017 19:30 15,7 C 15,7 C 16,0 C 83 % 1021,7 hPa 0,0 l/m 0,0 km/h (0 Bft) W-NW 302 0 min 0,000 mm 0 W/m 12,8 C 15,7 C 0,0 km/h (0 Bft) 100 %
27.09.2017 19:40 15,3 C 15,3 C 15,7 C 84 % 1021,7 hPa 0,0 l/m 0,0 km/h (0 Bft) W-NW 302 0 min 0,000 mm 0 W/m 12,6 C 15,3 C 0,0 km/h (0 Bft) 99 %
27.09.2017 19:50 15,1 C 15,1 C 15,3 C 85 % 1021,8 hPa 0,0 l/m 0,0 km/h (0 Bft) W-NW 302 0 min 0,000 mm 0 W/m 12,6 C 15,1 C 0,0 km/h (0 Bft) 100 %
27.09.2017 20:00 14,8 C 14,8 C 15,1 C 85 % 1021,8 hPa 0,0 l/m 0,0 km/h (0 Bft) W-NW 302 0 min 0,000 mm 0 W/m 12,3 C 14,8 C 0,0 km/h (0 Bft) 99 %
27.09.2017 20:10 14,4 C 14,4 C 14,8 C 86 % 1021,8 hPa 0,0 l/m 0,0 km/h (0 Bft) W-NW 302 0 min 0,000 mm 0 W/m 12,1 C 14,4 C 0,0 km/h (0 Bft) 100 %
27.09.2017 20:20 14,1 C 14,1 C 14,4 C 87 % 1021,9 hPa 0,0 l/m 1,0 km/h (0 Bft) W-NW 302 0 min 0,000 mm 0 W/m 12,0 C 14,1 C 3,2 km/h (1 Bft) 100 %
27.09.2017 20:30 13,8 C 13,8 C 14,1 C 88 % 1021,9 hPa 0,0 l/m 0,0 km/h (0 Bft) W-NW 302 0 min 0,000 mm 0 W/m 11,8 C 13,8 C 0,0 km/h (0 Bft) 99 %
27.09.2017 20:40 13,6 C 13,6 C 13,8 C 88 % 1022,1 hPa 0,0 l/m 1,0 km/h (0 Bft) W-NW 302 0 min 0,000 mm 0 W/m 11,6 C 13,6 C 3,2 km/h (1 Bft) 100 %
27.09.2017 20:50 13,3 C 13,3 C 13,6 C 88 % 1022,3 hPa 0,0 l/m 0,0 km/h (0 Bft) W-NW 302 0 min 0,000 mm 0 W/m 11,4 C 13,3 C 1,6 km/h (1 Bft) 100 %
27.09.2017 21:00 13,2 C 13,2 C 13,3 C 89 % 1022,3 hPa 0,0 l/m 0,0 km/h (0 Bft) W-NW 302 0 min 0,000 mm 0 W/m 11,4 C 13,2 C 0,0 km/h (0 Bft) 100 %
27.09.2017 21:10 13,1 C 13,1 C 13,2 C 89 % 1022,3 hPa 0,0 l/m 1,6 km/h (1 Bft) NW 315 0 min 0,000 mm 0 W/m 11,3 C 13,1 C 4,8 km/h (1 Bft) 100 %
27.09.2017 21:20 12,9 C 12,9 C 13,1 C 89 % 1022,3 hPa 0,0 l/m 0,0 km/h (0 Bft) NW 315 0 min 0,000 mm 0 W/m 11,1 C 12,9 C 1,6 km/h (1 Bft) 99 %
27.09.2017 21:30 12,8 C 12,8 C 12,9 C 89 % 1022,3 hPa 0,0 l/m 0,0 km/h (0 Bft) N 0 0 min 0,000 mm 0 W/m 11,0 C 12,8 C 0,0 km/h (0 Bft) 100 %
27.09.2017 21:40 12,6 C 12,6 C 12,8 C 89 % 1022,3 hPa 0,0 l/m 1,6 km/h (1 Bft) NW 315 0 min 0,000 mm 0 W/m 10,8 C 12,6 C 4,8 km/h (1 Bft) 100 %
27.09.2017 21:50 12,4 C 12,4 C 12,6 C 89 % 1022,5 hPa 0,0 l/m 0,0 km/h (0 Bft) NW 315 0 min 0,000 mm 0 W/m 10,6 C 12,4 C 3,2 km/h (1 Bft) 100 %
27.09.2017 22:00 12,2 C 12,2 C 12,4 C 89 % 1022,5 hPa 0,0 l/m 0,0 km/h (0 Bft) N 360 0 min 0,000 mm 0 W/m 10,4 C 12,2 C 6,4 km/h (2 Bft) 100 %
27.09.2017 22:10 12,1 C 12,1 C 12,2 C 89 % 1022,5 hPa 0,0 l/m 0,0 km/h (0 Bft) N 360 0 min 0,000 mm 0 W/m 10,3 C 12,1 C 4,8 km/h (1 Bft) 100 %
27.09.2017 22:20 12,0 C 12,0 C 12,1 C 89 % 1022,5 hPa 0,0 l/m 1,6 km/h (1 Bft) N-NW 337 0 min 0,000 mm 0 W/m 10,2 C 12,0 C 4,8 km/h (1 Bft) 100 %
27.09.2017 22:30 11,9 C 11,9 C 12,0 C 89 % 1022,6 hPa 0,0 l/m 0,0 km/h (0 Bft) N-NW 337 0 min 0,000 mm 0 W/m 10,1 C 11,9 C 4,8 km/h (1 Bft) 99 %
27.09.2017 22:40 11,8 C 11,8 C 11,9 C 89 % 1022,6 hPa 0,0 l/m 0,0 km/h (0 Bft) N-NW 337 0 min 0,000 mm 0 W/m 10,0 C 11,8 C 1,6 km/h (1 Bft) 99 %
27.09.2017 22:50 11,7 C 11,7 C 11,8 C 89 % 1022,5 hPa 0,0 l/m 0,0 km/h (0 Bft) N 0 0 min 0,000 mm 0 W/m 9,9 C 11,7 C 0,0 km/h (0 Bft) 100 %
27.09.2017 23:00 11,4 C 11,4 C 11,7 C 89 % 1022,5 hPa 0,0 l/m 0,0 km/h (0 Bft) N 0 0 min 0,000 mm 0 W/m 9,7 C 11,4 C 0,0 km/h (0 Bft) 98 %
27.09.2017 23:10 11,3 C 11,3 C 11,5 C 89 % 1022,5 hPa 0,0 l/m 0,0 km/h (0 Bft) N 0 0 min 0,000 mm 0 W/m 9,6 C 11,3 C 0,0 km/h (0 Bft) 97 %
27.09.2017 23:20 11,2 C 11,2 C 11,3 C 89 % 1022,5 hPa 0,0 l/m 0,0 km/h (0 Bft) N 0 0 min 0,000 mm 0 W/m 9,5 C 11,2 C 0,0 km/h (0 Bft) 87 %
27.09.2017 23:30 11,2 C 11,2 C 11,2 C 89 % 1022,5 hPa 0,0 l/m 0,0 km/h (0 Bft) N-NW 337 0 min 0,000 mm 0 W/m 9,5 C 11,2 C 1,6 km/h (1 Bft) 98 %
27.09.2017 23:40 11,2 C 11,2 C 11,2 C 89 % 1022,4 hPa 0,0 l/m 0,0 km/h (0 Bft) N-NW 337 0 min 0,000 mm 0 W/m 9,5 C 11,2 C 1,6 km/h (1 Bft) 97 %
27.09.2017 23:50 11,2 C 11,2 C 11,2 C 89 % 1022,3 hPa 0,0 l/m 0,0 km/h (0 Bft) N 0 0 min 0,000 mm 0 W/m 9,5 C 11,2 C 0,0 km/h (0 Bft) 98 %
_ Min-Zeit 05:40 05:40 05:50 15:10 03:30 - 00:00 - - - - - 05:40 05:40 00:00 23:20
Minimum _ 8,7 C 8,7 C 8,7 C 72 % 1021,1 hPa - 0,0 km/h (0 Bft) - - - - - 7,2 C 8,7 C 0,0 km/h (0 Bft) 87 %
_ Max-Zeit 15:30 15:30 15:30 09:10 10:10 03:10 06:30 - - 10:10 13:00 13:00 15:00 15:20 12:30 00:20
Maximum _ 19,8 C 19,7 C 19,8 C 91 % 1022,8 hPa 0,2 l/m 1,6 km/h
N (1 Bft)
- - 20 min 0,355 mm 691 W/m 15,2 C 19,7 C 9,7 km/h
S-SW (2 Bft)
100 %
Durchschnitt _ 13,4 C 13,3 C 13,5 C 85 % 1021,9 hPa #0,2 l/m 0,1 km/h (0 Bft) S-SW - #6:30 h #1,702 mm 262 W/m 11,0 C 13,4 C 1,4 km/h (1 Bft) 99 %
PRIVATE WETTERSTATION BILLIGHEIM-ALLFELD - www.neckar-odenwald-wetter.de - Holger Sonntag